sat.trackr.live / text

‹ back to catalog

CENTAURI-7

NORAD 62708 · 2025-009DD

PAYLOAD ACTIVE UNKNOWN

§ Identity

Operator
Country
AUS
Launch date
2025-01-14
Launch site
AFWTR
Launch vehicle
Mass (kg)
RCS (m²)

External: N2YO · Heavens-Above · Gunter

§ Orbital elements

Epoch: 2026-05-25T05:05:33.196992Z

Period
96.15 min
Inclination
97.7082°
Eccentricity
0.0000381
Mean motion
14.97616598 rev/d
Perigee alt
574.0 km
Apogee alt
574.5 km
Semi-major
6,952.4 km
B*
2.5524e-4
RAAN
225.7803°
Arg perigee
82.7362°
Mean anomaly
277.3903°
Rev number
7,402

§ Raw data

CENTAURI-71 62708U 25009DD  26145.21218978  .00002926  00000+0  25524-3 0  99942 62708  97.7082 225.7803 0000381  82.7362 277.3903 14.97616598 74025

JSON: /api/v1/satellites/62708 · /tle

For live sub-satellite position, see the globe view (requires WebGL).

§ Visibility from observer

Set your observer location to see the next 7 days of passes ≥ 10°. The values pass through the URL so the page stays shareable.

No JS? Fill the form by hand. The geolocation button needs JavaScript.

§ Radio — SatNOGS DB

ModeDescriptionDownlinkUplink
FSK Mode U - FSK9k6 - Transmitter 400.220 MHz
BPSK S-band telemetry 2.255 GHz

2 transmitters · refreshed weekly from db.satnogs.org